Regional Weather Roundup
Issued by NWS

Home | Current Version | Previous Version | Graphics & Text | Print | Product List | Glossary On
Versions: 1 2 3 4 5 6 7 8 9 10 11 12 13 14 15 16 17 18 19 20 21 22 23 24 25 26 27 28 29 30 31 32 33 34 35 36 37 38 39 40 41 42 43 44 45 46 47 48 49 50
000
ASUS43 KMKX 190921
RWRWI

WISCONSIN REGIONAL WEATHER ROUNDUP
NATIONAL WEATHER SERVICE MILWAUKEE/SULLIVAN WI
400 AM CDT TUE SEP 19 2017

NOTE: "FAIR" INDICATES FEW OR NO CLOUDS BELOW 12,000 FEET WITH NO
SIGNIFICANT WEATHER AND/OR OBSTRUCTIONS TO VISIBILITY.

WIZ001-002-006>008-014>016-023>028-191000-
NORTHWEST WISCONSIN

CITY           SKY/WX    TMP DP  RH WIND       PRES   REMARKS
SUPERIOR ARPT  CLOUDY    55  55 100 CALM      29.97F
ASHLAND        CLOUDY    56  54  93 E3        30.00S
HAYWARD        CLOUDY    59  55  87 SE3       29.98S
SIREN          CLOUDY    58  55  91 CALM      29.95F
CUMBERLAND     CLOUDY    55  54  94 SE3       29.97S
RICE LAKE      CLOUDY    58  57  95 E6        29.98S
CHETEK         CLOUDY    58  58  98 E3        29.97S
LADYSMITH      PTCLDY    56  55  94 E5        30.00F
EAU CLAIRE     CLOUDY    58  56  93 E5        29.95F
MENOMONIE      CLOUDY    58  57  97 E3        29.96F
NEW RICHMOND   CLOUDY    57  55  94 SE3       29.95S
OSCEOLA        CLOUDY    58  58 100 E5        29.97S
$$

WIZ003>005-009-010-017-018-191000-
NORTH CENTRAL WISCONSIN

CITY           SKY/WX    TMP DP  RH WIND       PRES   REMARKS
MANITOWISH WTR CLOUDY    55  55 100 SE5       30.02S
ARBOR VITAE    CLOUDY    57  54  89 SE3       30.02S
WOODRUFF       CLOUDY    57  54  89 SE3       30.02S
RHINELANDER    CLOUDY    53  52  96 E6        30.03S
EAGLE RIVER    CLOUDY    54  50  86 SE3       30.03S
LAND O LAKES   CLOUDY    54  51  92 SE3       30.05S
PHILLIPS       CLOUDY    55  54  98 SE5       30.00S
TOMAHAWK         N/A     54  51  90 CALM      30.03S
MEDFORD        PTCLDY    53  51  95 E3        30.00S
MERRILL        CLOUDY    55  54  94 CALM      30.02S
$$

WIZ029-030-035-036-043>047-191000-
CENTRAL WISCONSIN

CITY           SKY/WX    TMP DP  RH WIND       PRES   REMARKS
WAUSAU         MOCLDY    54  52  93 E3        30.00F
MOSINEE        CLOUDY    54  54 100 E6        30.01F
MARSHFIELD     CLOUDY    55  51  86 E6        29.99S
STEVENS POINT  PTCLDY    54  53  95 E3        30.01S
WAUPACA        CLOUDY    59  54  85 N3        30.01S
WAUTOMA        CLOUDY    58  53  84 NE5       30.00F
WISC RAPIDS    CLOUDY    58  52  80 E5        30.00F
CAMP DOUGLAS   PTCLDY    57  54  89 E5        29.98F
$$

WIZ011>013-019>022-031-037>040-048>050-191000-
NORTHEAST WISCONSIN

CITY           SKY/WX    TMP DP  RH WIND       PRES   REMARKS
ANTIGO         CLOUDY    54  51  89 E8        30.03S
SHAWANO        CLOUDY    60  55  86 NE6       30.01S
OCONTO         CLOUDY    59  55  88 NE7       30.01S
STURGEON BAY   CLOUDY    60  56  86 E7        30.02F
GREEN BAY      CLOUDY    60  59  96 NE7       30.00F
MANITOWOC      CLOUDY    58  57  97 N9        30.00S
APPLETON       CLOUDY    57  52  82 NE8       29.99S
CLINTONVILLE   CLOUDY    55  50  82 NE3       30.02R
OSHKOSH        MOCLDY    61  57  87 N8        29.99S
$$

WIZ032>034-041-042-053>061-191000-
SOUTHWEST WISCONSIN

CITY           SKY/WX    TMP DP  RH WIND       PRES   REMARKS
LA CROSSE      PTCLDY    60  59  96 S5        29.95S
SPARTA         CLOUDY    56  54  95 E3        29.98S
VIROQUA        CLEAR     57  57 100 E6        29.97S
BOSCOBEL       CLEAR     58  56  93 CALM      29.96S
PRAIRIE DU CHI CLEAR     58  56  91 CALM      29.95S
PLATTEVILLE    CLEAR     59  57  93 E8        29.96F
$$

WIZ056-057-062-063-064-067-068-191000-
SOUTH CENTRAL WISCONSIN

CITY           SKY/WX    TMP DP  RH WIND       PRES   REMARKS
REEDSBURG      MOCLDY    57  56  97 E3        29.98S
BARABOO/DELLS  MOCLDY    56  52  86 CALM      29.98S
LONE ROCK      PTCLDY    59  56  89 E3        29.97S
MINERAL POINT  PTCLDY    61  57  88 E5        29.97S
MADISON        CLOUDY    59  56  89 N3        29.98R
MIDDLETON      CLOUDY    60  57  91 N3        29.99F
WATERTOWN      CLOUDY    59  59 100 CALM      29.96S
MONROE         CLOUDY    59  55  88 NE6       29.97S
JANESVILLE     LGT RAIN  61  61 100 CALM      29.97S
$$

WIZ051-052-058>065-066-070>072-191000-
SOUTHEAST WISCONSIN

CITY           SKY/WX    TMP DP  RH WIND       PRES   REMARKS
MILWAUKEE      CLOUDY    66  63  90 N5        29.96S
WAUKESHA       CLOUDY    59  55  88 CALM      29.98F
MILWAUKEE/TIMM CLOUDY    61  55  82 CALM      29.98S
RACINE         CLOUDY    65  63  93 NE3       29.97S
BURLINGTON     CLOUDY    60  60 100 CALM      29.97R
KENOSHA        CLOUDY    63  59  87 CALM      29.96F
FOND DU LAC    CLOUDY    58  54  86 CALM      29.99S
SHEBOYGAN      CLOUDY    59  59 100 N3        29.98S
WEST BEND        N/A     55  55 100 CALM      29.98S
JUNEAU         CLOUDY    56  55  94 CALM      29.99S
$$

LSZ147-162-191000-
LAKE SUPERIOR

STATION/POSITION TIME  TEMP    WIND        PRES    WAVE
                       AIR SEA DIR/SP/G            HT/PER
                 (UTC) (F)     (DEG/KT/KT) (MB)    (FT/S)
W MID LAKE BUOY  0850   57 54  140/  8/  8 1016.1R   1
DEVILS ISLAND    0900   59     150/  7/  9 1015.7F
PORT WING        0840   59     360/  2/  2 1015.2S
SAXON HARBOR     0830   60     200/  2/  8 1014.9S
$$

LMZ867-665-643>646-191000-
LAKE MICHIGAN

STATION/POSITION TIME  TEMP    WIND        PRES    WAVE
                       AIR SEA DIR/SP/G            HT/PER
                 (UTC) (F)     (DEG/KT/KT) (MB)    (FT/S)
S GREEN BAY BUOY 0900   65 66   70/ 17/ 19 1015.7
N MID LAKE BUOY  0850   64 64   90/ 14/ 16 1017.8F   2/ 3
NORTHPORT PIER   0840   63      50/  8/  9 1016.9F
KEWAUNEE LAKESHO 0900   58      30/  7/  9 1015.0
SHEBOYGAN LAKESH 0900   64     360/  5/  7 1014.8F
PORT WASHINGTON  0840   63     350/  3/  4 1015.6F
ATWATER BUOY     0809   65 67  360/ 10/ 14 1014.9F
MILWAUKEE LAKESH 0900   64      10/  5/  6   N/A
S MID LAKE BUOY  0850   67 68   80/ 12/ 14 1014.1S   2/ 5
KENOSHA   LAKESH 0900   67      40/  6/  8 1014.2
$$

TC  - TEMPERATURE IN CELSIUS
VSB - VISIBILITY IN STATUTE MILES
WCI - WIND CHILL INDEX
HX  - HEAT INDEX





USA.gov is the U.S. government's official web portal to all federal, state and local government web resources and services.